Flag for Canada Weather past 2 weeks in Paradise, Newfoundland and Labrador, Canada

28 °F


Feels Like: 18 °F
Forecast: 28 / 32 °F
Wind: 13 mph from Northwest

Location: St. John's

Current Time: Nov 29, 2015 at 4:26:23 PM

Latest Report: Nov 29, 2015 at 3:30 PM

Visibility: 15 mi

Pressure: 29.83 "Hg

Humidity: 80%

Dew point: 23 °F

Location of ParadiseLocation

Historic Weather in Paradise — Graph


Paradise temperature yesterday

Maximum temperature yesterday: 50 °F (at 12:30 AM)
Minimum temperature yesterday: 32 °F (at 2:30 PM)
Average temperature yesterday: 40 °F

Past Weeks' High & Low Weather Summary

High50 °F (Nov 24, 1:30 PM)100% (Nov 14, 11:30 PM)30.98 "Hg (Nov 14, 11:30 PM)
Low25 °F (Nov 26, 6:30 AM)51% (Nov 26, 1:30 PM)29.31 "Hg (Nov 15, 3:30 AM)
Average36 °F87%30.15 "Hg
* Reported Nov 14 2:30 PM — Nov 29 2:30 PM, Paradise, Weather by CustomWeather, © 2015

Note: Actual official high and low records may vary slightly from our data, if they occured in-between our weather recording intervals... More about our weather records


Paradise weather history for previous 24 hours

Time TempWeatherWind HumidityBarometerVisibility
2:30 PM
Sun, Nov 29
30 °FOvercast.13 mph80%29.82 "Hg15 mi
1:30 PM30 °FOvercast.14 mph86%29.81 "Hg15 mi
1:15 PM32 °FSnow flurries. Partly sunny.13 mph87%29.81 "Hg12 mi
12:30 PM32 °FSnow flurries. Partly sunny.9 mph87%29.83 "Hg8 mi
11:30 AM32 °FPartly sunny.10 mph87%29.84 "Hg15 mi
10:30 AM32 °FPartly sunny.5 mph93%29.85 "Hg15 mi
9:30 AM32 °FSnow flurries. Broken clouds.2 mph93%29.86 "Hg12 mi
8:30 AM30 °FLight snow. Mostly cloudy.5 mph100%29.86 "Hg12 mi
7:30 AM30 °FLight snow. Low clouds.6 mph100%29.86 "Hg10 mi
6:30 AM30 °FLight snow. Mostly cloudy.7 mph100%29.85 "Hg15 mi
5:30 AM30 °FLight snow. Mostly cloudy.8 mph100%29.85 "Hg15 mi
4:30 AM30 °FLight snow. Low clouds.10 mph100%29.86 "Hg1 mi
3:30 AM30 °FLight snow. Low clouds.12 mph100%29.88 "Hg3 mi
2:30 AM32 °FLight snow. Low clouds.9 mph93%29.90 "Hg3 mi
1:30 AM32 °FLow clouds.12 mph93%29.90 "Hg6 mi
12:30 AM32 °FLight snow. Ice fog.15 mph93%29.92 "Hg1 mi
11:30 PM
Sat, Nov 28
32 °FLight snow. Ice fog.9 mph93%29.96 "Hg3 mi
10:30 PM32 °FLight snow. Low clouds.10 mph93%29.97 "Hg10 mi
9:30 PM32 °FLight snow. Low clouds.13 mph93%29.99 "Hg10 mi
8:30 PM32 °FLight snow. Low clouds.12 mph93%30.01 "Hg10 mi
7:30 PM32 °FLight snow. Low clouds.15 mph93%30.01 "Hg10 mi
6:30 PM32 °FLight snow. Low clouds.16 mph93%30.03 "Hg10 mi
5:30 PM32 °FLight snow. Low clouds.16 mph93%30.04 "Hg10 mi
4:30 PM32 °FChilly.14 mph93%30.03 "Hg8 mi
Weather by CustomWeather, © 2015

See weather overviewHow to use our weather pages